Cherry Point, NC

11:58 PM EST on February 24, 2018 (GMT -0500)
Cherry Point Marine Corps Air Station

Weather History for KNKT - October, 2012

Change the Weather History Date:

Thursday, October 18, 2012

  Actual Average Record
Temperature  
Mean Temperature 66 °F -  
Max Temperature 80 °F 71 °F 84 °F (2007)
Min Temperature 53 °F 51 °F 33 °F (1996)
Growing Degree Days 16 (Base 50)    
Moisture  
Dew Point 59 °F    
Average Humidity 83    
Maximum Humidity 100    
Minimum Humidity 56    
Precipitation  
Precipitation 0.00 in - - ()
Sea Level Pressure  
Sea Level Pressure 29.90 in    
Wind  
Wind Speed 2 mph ()    
Max Wind Speed 12 mph    
Max Gust Speed -    
Visibility 8.4 miles    
Events Fog    
Averages and records for this station are not official NWS values.
T = Trace of Precipitation, MM = Missing Value Source: Averaged Metar Reports

Daily Weather History Graph

Daily Weather History Graph

Search for Another Location

Airport or City:

Trip Planner

Search our weather history database for the weather conditions in past years. The results will help you decide how hot, cold, wet, or windy it might be!

Date:

Astronomy

Oct. 18, 2012 Rise Set
Actual Time 7:16 AM EDT 6:28 PM EDT
Civil Twilight 6:50 AM EDT 6:53 PM EDT
Nautical Twilight 6:21 AM EDT 7:23 PM EDT
Astronomical Twilight 5:51 AM EDT 7:52 PM EDT
Moon 10:47 AM EDT (10/18) 9:08 PM EDT (10/18)
Length of Visible Light 12h 03m
Length of Day
11h 12m
Waxing Crescent, 14% of the Moon is Illuminated
Oct 18
Waxing Crescent
Oct 21
First Quarter
Oct 29
Full
Nov 6
Last Quarter
Nov 13
New

Hourly Weather History & Observations

Time (EDT) Temp. Dew Point Humidity Pressure Visibility Wind Dir Wind Speed Gust Speed Precip Events Conditions
12:54 AM 55.9 °F 52.0 °F 87% 29.95 in 10.0 mi Calm Calm - N/A   Clear
1:54 AM 57.0 °F 53.1 °F 87% 29.94 in 10.0 mi Calm Calm - N/A   Partly Cloudy
2:54 AM 55.0 °F 52.0 °F 89% 29.91 in 10.0 mi Calm Calm - N/A   Clear
3:54 AM 57.9 °F 55.0 °F 90% 29.90 in 9.0 mi Calm Calm - N/A   Mostly Cloudy
4:54 AM 57.0 °F 55.0 °F 93% 29.91 in 10.0 mi Calm Calm - N/A   Mostly Cloudy
5:54 AM 59.0 °F 57.0 °F 93% 29.93 in 9.0 mi Calm Calm - N/A   Clear
6:29 AM 55.4 °F 53.6 °F 94% 29.94 in 1.5 mi Calm Calm - N/A   Clear
6:35 AM 55.4 °F 53.6 °F 94% 29.94 in 1.0 mi Calm Calm - N/A   Mist
6:37 AM 55.4 °F 53.6 °F 94% 29.94 in 7.0 mi Calm Calm - N/A   Scattered Clouds
6:54 AM 54.0 °F 52.0 °F 93% 29.94 in 7.0 mi Calm Calm - N/A   Scattered Clouds
7:11 AM 55.4 °F 53.6 °F 94% 29.95 in 1.5 mi Calm Calm - N/A   Clear
7:19 AM 53.6 °F 53.6 °F 100% 29.95 in 6.0 mi Calm Calm - N/A Fog Partly Cloudy
7:54 AM 55.9 °F 54.0 °F 93% 29.95 in 6.0 mi Calm Calm - N/A Fog Partly Cloudy
10:54 AM 77.0 °F 60.1 °F 56% 29.95 in 10.0 mi Calm Calm - N/A   Mostly Cloudy
11:54 AM 78.1 °F 62.1 °F 58% 29.94 in 10.0 mi Variable 5.8 mph - N/A   Scattered Clouds
12:54 PM 78.1 °F 61.0 °F 56% 29.91 in 10.0 mi South 5.8 mph - N/A   Mostly Cloudy
1:54 PM 78.1 °F 61.0 °F 56% 29.88 in 10.0 mi SSE 11.5 mph - N/A   Mostly Cloudy
2:54 PM 78.1 °F 63.0 °F 60% 29.86 in 10.0 mi SE 10.4 mph - N/A   Overcast
3:54 PM 77.0 °F 63.0 °F 62% 29.86 in 10.0 mi SE 10.4 mph - N/A   Overcast
4:54 PM 75.0 °F 64.9 °F 71% 29.84 in 10.0 mi SE 10.4 mph - N/A   Overcast
5:54 PM 73.9 °F 64.9 °F 73% 29.85 in 10.0 mi SSE 4.6 mph - N/A   Scattered Clouds
6:54 PM 71.1 °F 66.9 °F 87% 29.84 in 10.0 mi SE 5.8 mph - N/A   Mostly Cloudy
7:54 PM 69.1 °F 66.0 °F 90% 29.84 in 10.0 mi SE 5.8 mph - N/A   Clear
8:54 PM 71.1 °F 68.0 °F 90% 29.85 in 10.0 mi SE 3.5 mph - 0.00 in   Overcast
9:54 PM 72.0 °F 69.1 °F 91% 29.83 in 10.0 mi SSE 5.8 mph - N/A   Overcast
10:54 PM 71.1 °F 68.0 °F 90% 29.83 in 10.0 mi SW 3.5 mph - N/A   Partly Cloudy
11:54 PM 70.0 °F 68.0 °F 93% 29.82 in 10.0 mi Calm Calm - N/A   Partly Cloudy